Voltar ao catálogo

STARLINK-36932

AtivoComunicaçõesVLEO
NORAD 68331·PAYLOAD·🇺🇸 United States

Lançado Mar 22, 2026 de Cape Canaveral Space Force Station

Loading…

Próximas Passagens (próximas 24 horas)

TLE

AtualizadoSource: CelesTrak SupGP

Época: Sep 14, 2026, 23:19 UTC

1 68331C 26059L   26257.97201389 -.00055694  00000+0 -16452-2 0  2571
2 68331  53.1578 181.6561 0001332  96.2520 125.7000 15.34424583    18

Acompanhe STARLINK-36932 em tempo real com AllMySat

Download on the App Store